This is the latest recevied weather packets stored in our database for station/object K2BIG. If no packets are shown the sender has not sent any weather packets the latest 10 day(s).
| Time | Temp. | Humidity | Pressure | Rain* | Wind** | Luminosity | Snow |
|---|---|---|---|---|---|---|---|
| 1777670416 | 17.78° C | 42% | 1009.5 hPa | 0 mm | - | - | - |
| 1777670116 | 18.33° C | 44% | 1009.5 hPa | 0 mm | - | - | - |
| 1777669816 | 18.33° C | 39% | 1009.4 hPa | 0 mm | - | - | - |
| 1777669516 | 18.89° C | 41% | 1009.4 hPa | 0 mm | - | - | - |
| 1777669216 | 19.44° C | 38% | 1009.5 hPa | 0 mm | - | - | - |
| 1777668916 | 19.44° C | 39% | 1009.5 hPa | 0 mm | - | - | - |
| 1777668616 | 18.89° C | 40% | 1009.4 hPa | 0 mm | - | - | - |
| 1777668316 | 18.33° C | 39% | 1009.4 hPa | 0 mm | - | - | - |
| 1777668016 | 18.33° C | 40% | 1009.5 hPa | 0 mm | - | - | - |
| 1777667715 | 18.89° C | 39% | 1009.5 hPa | 0 mm | - | - | - |
| 1777667416 | 19.44° C | 40% | 1009.6 hPa | 0 mm | - | - | - |
| 1777667115 | 19.44° C | 38% | 1009.5 hPa | 0 mm | - | - | - |
| 1777666816 | 19.44° C | 41% | 1009.5 hPa | 0 mm | - | - | - |
| 1777666515 | 18.89° C | 38% | 1009.6 hPa | 0 mm | - | - | - |
| 1777666215 | 18.89° C | 38% | 1009.6 hPa | 0 mm | - | - | - |
| 1777665916 | 18.89° C | 39% | 1009.7 hPa | 0 mm | - | - | - |
| 1777665615 | 18.33° C | 43% | 1009.7 hPa | 0 mm | - | - | - |
| 1777665316 | 18.89° C | 40% | 1009.7 hPa | 0 mm | - | - | - |
| 1777665015 | 18.89° C | 39% | 1009.7 hPa | 0 mm | - | - | - |
| 1777664715 | 19.44° C | 38% | 1009.8 hPa | 0 mm | - | - | - |
| 1777664416 | 19.44° C | 37% | 1009.8 hPa | 0 mm | - | - | - |
| 1777664116 | 19.44° C | 39% | 1009.9 hPa | 0 mm | - | - | - |
| 1777663816 | 19.44° C | 40% | 1009.9 hPa | 0 mm | - | - | - |
| 1777663516 | 18.89° C | 40% | 1009.8 hPa | 0 mm | - | - | - |
| 1777663215 | 18.89° C | 42% | 1010 hPa | 0 mm | - | - | - |
* Rain latest hour (hover to see other rain measurements)
** Current wind speed in m/s (hover to see current wind gust speed)